Regional Weather Roundup
Issued by NWS Cleveland, OH

Home | Current Version | Previous Version | Graphics & Text | Print | Product List | Glossary On
Versions: 1 2 3 4 5 6 7 8 9 10 11 12 13 14 15 16 17 18 19 20 21 22 23 24 25 26 27 28 29 30 31 32 33 34 35 36 37 38 39 40 41 42 43 44 45 46 47 48 49 50
000
ASUS41 KCLE 231100
RWRCLE
OHIO REGIONAL WEATHER ROUNDUP
NATIONAL WEATHER SERVICE WILMINGTON, OH
700 AM EDT FRI JUN 23 2017

NOTE: "FAIR" INDICATES FEW OR NO CLOUDS BELOW 12,000 FEET WITH NO
SIGNIFICANT WEATHER AND/OR OBSTRUCTIONS TO VISIBILITY.

OHZ001>008-015>018-024>027-034-035-043-044-231200-
   NORTHWEST OHIO

CITY           SKY/WX    TMP DP  RH WIND       PRES   REMARKS
DEFIANCE       CLOUDY    71  69  93 SW9       29.67F FOG
FINDLAY        CLOUDY    73  69  87 SW15      29.69S
TOLEDO EXPRESS RAIN      70  70 100 SW8       29.66F FOG
TOLEDO EXEC    LGT RAIN  71  71 100 SW9       29.67F FOG
LIMA           CLOUDY    73  72  96 SW12      29.71F
$$

OHZ009>014-019>023-028>033-038-089-231200-
   NORTHEAST OHIO

CITY           SKY/WX    TMP DP  RH WIND       PRES   REMARKS
CLE-HOPKINS    RAIN      72  69  90 S10       29.72F FOG
CLE-LAKEFRONT  RAIN      71  67  87 S18G25    29.69F FOG
CUY CO. ARPT   LGT RAIN  73  68  83 S12       29.72
LORAIN-ELYRIA  LGT RAIN  70  64  81 S10       29.71F
ASHTABULA      PTSUNNY   72  68  87 S10       29.74S
AKRON-CANTON   LGT RAIN  70  67  90 SW10      29.76S FOG
WOOSTER        NOT AVBL
MANSFIELD      LGT RAIN  71  70  96 SW13      29.75S FOG
YOUNGSTOWN     CLOUDY    70  66  87 S9        29.76S
$$

OHZ042-051>053-060>062-070>072-077>081-231200-
  SOUTHWEST OHIO

CITY           SKY/WX    TMP DP  RH WIND       PRES   REMARKS
CINC-COVINGTON LGT RAIN  74  72  93 S9        29.77F FOG
CINC-LUNKEN    LGT RAIN  74  74 100 S8        29.77F
HAMILTON       CLOUDY    75  73  93 SW6       29.77S
DAYTON         NOT AVBL
WRIGHT-PAT AFB CLOUDY    73  73 100 SW13      29.75F
DAYTON GENERAL LGT RAIN  74  71  91 SW9       29.76S
WILMINGTON     CLOUDY    72  72 100 SW12      29.77F
$$

OHZ036-037-039>041-045>050-054>059-063>069-073>076-082>088-231200-
  CENTRAL AND SOUTHEAST OHIO

CITY           SKY/WX    TMP DP  RH WIND       PRES   REMARKS
COLUMBUS       CLOUDY    72  72 100 S9        29.77S
OSU AIRPORT    CLOUDY    73  73 100 SW12      29.76F
BOLTON FIELD   NOT AVBL
RICKENBACK AFB NOT AVBL
NEWARK         CLOUDY    73  70  90 SW9       29.77F
MARION         CLOUDY    72  70  93 SW16      29.73F
LANCASTER      CLOUDY    72  71  97 SW9       29.79F
ZANESVILLE     CLOUDY    71  69  93 SW8       29.79S
NEW PHILLY     CLOUDY    71  69  93 S6        29.78S
$$




USA.gov is the U.S. government's official web portal to all federal, state and local government web resources and services.